[[{"header":{"parameterUnit":"m.s-1","parameterCategory":1,"la1":30.2991,"la2":30.254,"lo1":-89.0895,"lo2":-89.0444,"dy":0.0017,"dx":0.0017,"nx":28,"ny":28,"refTime":"2024-10-10T09:00:00:Z","depth":0,"parameterNumber":2,"parameterNumberName":"U-component_of_WINDS"},"data":[0,0,0,0,0,0,0,0,0,0,0,0,0,0,0,0,0,0,0,0,0,0,0,0,0,0,0,0,0,0,0,0,0,0,0,0,0,0,0,0,0,0,0,0,0,0,0,0,0,0,0,0,0,0,0,0,0,0,-2.0442,-2.0443,0,-2.0583,-2.0585,-2.0587,-2.0563,-2.0561,-2.0558,-2.0556,-2.0707,-2.0713,-2.072,0,0,0,0,0,0,0,0,0,0,0,0,0,-2.0156,-2.0161,-2.0442,-2.0444,-2.0445,-2.0583,-2.0585,-2.0587,-2.0564,-2.0561,-2.0558,-2.0555,-2.0705,-2.0713,-2.072,0,0,0,0,0,0,0,0,0,0,0,0,0,-2.0287,-2.0163,-2.0442,-2.045,-2.0452,-2.0583,-2.0585,-2.0588,-2.0564,-2.0561,-2.0557,-2.0553,-2.0703,-2.0712,-2.0721,-2.0854,0,0,-2.075,-2.0755,0,0,0,0,0,0,0,0,-2.028,-2.0298,-2.0447,-2.045,-2.0452,-2.0552,-2.054,-2.0677,-2.0565,-2.0522,-2.0556,-2.0552,-2.0659,-2.0672,-2.0707,-2.0861,-2.0868,-2.0751,-2.0757,-2.0761,-2.0764,0,0,0,0,0,0,0,-2.0271,-2.0292,-2.0498,-2.0449,-2.0453,-2.0449,-2.0463,-2.0566,-2.061,-2.0526,-2.0524,-2.0541,-2.066,-2.0698,-2.071,-2.087,-2.0751,-2.0759,-2.0765,-2.0769,-2.114,-2.1144,0,0,0,0,0,0,-2.0258,-2.0284,-2.0494,-2.0502,-2.0355,-2.0457,-2.0473,-2.0524,-2.0609,-2.0618,-2.0544,-2.0539,-2.0683,-2.0699,-2.0715,-2.0876,-2.0761,-2.077,-2.0775,-2.1136,-2.1141,-2.1145,0,0,0,0,0,0,-2.0252,-2.0277,-2.0488,-2.0393,-2.0419,-2.0465,-2.0523,-2.0529,-2.0566,-2.0622,-2.0631,-2.0574,-2.0681,-2.0702,-2.0819,-2.0881,-2.0774,-2.0783,-2.1131,-2.1137,-2.1143,-2.1198,0,0,0,0,0,0,-2.0244,-2.0275,-2.0325,-2.0394,-2.0424,-2.0588,-2.0527,-2.0534,-2.0582,-2.0577,-2.0653,-2.0662,-2.068,-2.0805,-2.0829,-2.0892,-2.079,-2.1125,-2.1134,-2.1141,-2.1191,-2.1206,-2.1218,0,0,0,0,0,-2.0234,-2.0337,-2.0328,-2.0353,-2.0488,-2.0592,-2.0609,-2.0626,-2.0587,-2.0638,-2.0674,-2.066,-2.087,-2.0817,-2.0844,-2.0911,-2.1122,-2.1131,-2.114,-2.1185,-2.1203,-2.1218,0,0,0,0,0,0,-2.0277,-2.0346,-2.0337,-2.0465,-2.0522,-2.0587,-2.0653,-2.0644,-2.0715,-2.0708,-2.0727,-2.0745,-2.0863,-2.0899,-2.0839,-2.1043,-2.0991,-2.1006,-2.1016,-2.1033,-2.1046,-2.1036,-2.0798,0,0,0,0,0,-2.03,-2.0377,-2.0434,-2.0542,-2.0571,-2.0607,-2.0653,-2.066,-2.0721,-2.0746,-2.0791,-2.0852,-2.0932,-2.0984,-2.1061,-2.1196,-2.1212,-2.1255,-2.1268,-2.1279,-2.1292,-2.1366,-2.1386,-2.1176,-2.1176,-2.1176,0,0,-2.0352,-2.0399,-2.0447,-2.0551,-2.0597,-2.0677,-2.0628,-2.0715,-2.0776,-2.076,-2.0873,-2.0907,-2.0977,-2.1104,-2.1162,-2.1137,-2.1354,-2.1291,-2.1299,-2.1307,-2.1378,-2.1397,-2.1415,-2.1182,-2.1181,-2.118,0,0,-2.0485,-2.0528,-2.0622,-2.0668,-2.0736,-2.0759,-2.0781,-2.0848,-2.0869,-2.0982,-2.0972,-2.1045,-2.1182,-2.1232,-2.1275,-2.1426,-2.1415,-2.145,-2.1521,-2.1592,-2.1609,-2.1624,-2.1678,-2.1697,-2.1463,-2.1463,-2.1463,0,-2.0541,-2.066,-2.0672,-2.076,-2.0807,-2.0793,-2.0889,-2.0933,-2.1024,-2.1057,-2.1028,-2.1198,-2.1245,-2.1382,-2.1419,-2.1454,-2.1481,-2.1442,-2.1605,-2.162,-2.1634,-2.1686,-2.1706,-2.1467,-2.1467,-2.1466,-2.1466,0,-2.0724,-2.0807,-2.0875,-2.0959,-2.1014,-2.1105,-2.1132,-2.1186,-2.1188,-2.1215,-2.133,-2.1384,-2.1471,-2.1504,-2.1509,-2.1643,-2.1625,-2.16,-2.1548,-2.1658,-2.1706,-2.1726,-2.1472,-2.1471,-2.147,-2.1469,0,0,-2.0891,-2.0979,-2.1004,-2.1042,-2.1115,-2.118,-2.1271,-2.1354,-2.1399,-2.1462,-2.154,-2.1655,-2.1632,-2.1681,-2.1691,-2.1753,-2.1869,-2.1721,-2.1723,-2.1747,-2.202,-2.2038,-2.2061,-2.1862,-2.1866,-2.1869,-2.2014,0,-2.1031,-2.1189,-2.1202,-2.1346,-2.1422,-2.141,-2.1489,-2.1544,-2.157,-2.1641,-2.1671,-2.1752,-2.1715,-2.1745,-2.1806,-2.1842,-2.1924,-2.1831,-2.1936,-2.1939,-2.1919,-2.2087,-2.2107,-2.2242,-2.2033,-2.2037,-2.2039,0,-2.1217,-2.1282,-2.1432,-2.1493,-2.1526,-2.1597,-2.1673,-2.174,-2.1801,-2.1817,-2.187,-2.1871,-2.1966,-2.1909,-2.204,-2.1977,-2.202,-2.2044,-2.2049,-2.2061,-2.1996,-2.2103,-2.2285,-2.2305,-2.2069,-2.2067,-2.2065,0,-2.1323,-2.1449,-2.1554,-2.1587,-2.1661,-2.1711,-2.1745,-2.1803,-2.1851,-2.1918,-2.195,-2.2028,-2.2072,-2.2133,-2.2155,-2.2111,-2.2286,-2.223,-2.2302,-2.2301,-2.234,-2.2337,-2.2532,-2.2367,-2.2367,-2.2366,-2.2366,0,-2.1479,-2.1572,-2.1603,-2.1668,-2.1771,-2.1785,-2.1888,-2.1919,-2.197,-2.2042,-2.2037,-2.2105,-2.2129,-2.2202,-2.222,-2.2326,-2.2346,-2.2362,-2.2366,-2.2363,-2.2361,-2.2392,-2.2383,-2.2372,-2.2371,-2.2369,-2.2369,0,-2.1616,-2.164,-2.1755,-2.1814,-2.1831,-2.1905,-2.1957,-2.202,-2.2045,-2.2136,-2.2158,-2.2198,-2.2283,-2.231,-2.2414,-2.2426,-2.255,-2.2546,-2.2529,-2.253,-2.2599,-2.2592,-2.2822,-2.2853,-2.2667,-2.2668,-2.267,0,-2.1714,-2.1785,-2.1851,-2.1897,-2.1932,-2.2007,-2.2056,-2.2073,-2.2124,-2.2198,-2.2253,-2.2336,-2.2404,-2.2541,-2.258,-2.2659,-2.2657,-2.2732,-2.2669,-2.2663,-2.2658,-2.2654,-2.2661,-2.2744,-2.2746,-2.2747,-2.2749,0,-2.1886,-2.1894,-2.1963,-2.2036,-2.2093,-2.2152,-2.2209,-2.2248,-2.2273,-2.2331,-2.2416,-2.2469,-2.2573,-2.2656,-2.2736,-2.2773,-2.2766,-2.2768,-2.2788,-2.2786,-2.2773,-2.2781,-2.2561,-2.2763,-2.2761,-2.276,-2.2759,-2.2759,-2.2007,-2.2068,-2.2124,-2.2201,-2.2244,-2.2297,-2.2359,-2.239,-2.2461,-2.2545,-2.2551,-2.2644,-2.2703,-2.281,-2.285,-2.2924,-2.2903,-2.2933,-2.294,-2.2948,-2.2953,-2.2761,-2.2938,-2.2938,-2.2938,-2.2937,-2.2937,0,-2.2178,-2.2213,-2.2283,-2.2361,-2.2422,-2.2406,-2.2468,-2.2521,-2.2601,-2.2656,-2.2721,-2.282,-2.29,-2.2945,-2.3025,-2.3076,-2.3074,-2.3096,-2.3093,-2.3102,-2.2967,-2.2941,-2.3096,-2.3096,-2.3096,-2.3096,-2.3096,-2.3096,-2.2275,-2.2377,-2.2392,-2.2516,-2.2551,-2.2639,-2.2676,-2.2725,-2.2768,-2.2877,-2.2943,-2.297,-2.3021,-2.3105,-2.3179,-2.319,-2.322,-2.3245,-2.3254,-2.3128,-2.3111,-2.3096,-2.3071,-2.3251,-2.3251,-2.3382,-2.3383,-2.3384]},{"header":{"parameterUnit":"m.s-1","parameterCategory":1,"la1":30.2991,"la2":30.254,"lo1":-89.0895,"lo2":-89.0444,"dy":0.0017,"dx":0.0017,"nx":28,"ny":28,"refTime":"2024-10-10T09:00:00:Z","depth":0,"parameterNumber":3,"parameterNumberName":"V-component_of_WINDS"},"data":[0,0,0,0,0,0,0,0,0,0,0,0,0,0,0,0,0,0,0,0,0,0,0,0,0,0,0,0,0,0,0,0,0,0,0,0,0,0,0,0,0,0,0,0,0,0,0,0,0,0,0,0,0,0,0,0,0,0,-0.56,-0.5603,0,-0.5907,-0.591,-0.5914,-0.606,-0.606,-0.606,-0.606,-0.6377,-0.6386,-0.6394,0,0,0,0,0,0,0,0,0,0,0,0,0,-0.5141,-0.5149,-0.5599,-0.5603,-0.5607,-0.5906,-0.591,-0.5915,-0.606,-0.606,-0.606,-0.606,-0.6374,-0.6384,-0.6395,0,0,0,0,0,0,0,0,0,0,0,0,0,-0.5383,-0.5151,-0.5599,-0.5716,-0.5729,-0.5905,-0.591,-0.5916,-0.606,-0.606,-0.606,-0.606,-0.6371,-0.6383,-0.6396,-0.648,0,0,-0.6436,-0.6441,0,0,0,0,0,0,0,0,-0.5369,-0.54,-0.5695,-0.5708,-0.5723,-0.5945,-0.5865,-0.6105,-0.606,-0.5935,-0.606,-0.606,-0.6234,-0.6258,-0.6316,-0.6495,-0.6508,-0.6437,-0.6444,-0.645,-0.6454,0,0,0,0,0,0,0,-0.5353,-0.5388,-0.5721,-0.5699,-0.5716,-0.5754,-0.5788,-0.5911,-0.6082,-0.5946,-0.5957,-0.5991,-0.6242,-0.6303,-0.6325,-0.6513,-0.6436,-0.6448,-0.6456,-0.6461,-0.6777,-0.6777,0,0,0,0,0,0,-0.5316,-0.5373,-0.5711,-0.573,-0.5542,-0.5762,-0.58,-0.5874,-0.6081,-0.6112,-0.5991,-0.5997,-0.6281,-0.6309,-0.6336,-0.6449,-0.645,-0.6462,-0.6469,-0.6776,-0.6777,-0.6778,0,0,0,0,0,0,-0.5306,-0.5345,-0.5699,-0.5555,-0.5603,-0.577,-0.5852,-0.588,-0.5942,-0.6115,-0.6146,-0.6023,-0.6282,-0.6318,-0.6443,-0.6462,-0.6468,-0.648,-0.6775,-0.6776,-0.6777,-0.6673,0,0,0,0,0,0,-0.5292,-0.534,-0.5374,-0.5554,-0.561,-0.5799,-0.5853,-0.5886,-0.5964,-0.5974,-0.6153,-0.6183,-0.6285,-0.6423,-0.6456,-0.648,-0.649,-0.6774,-0.6776,-0.6777,-0.6676,-0.6671,-0.6666,0,0,0,0,0,-0.5275,-0.5333,-0.5374,-0.5415,-0.5654,-0.58,-0.5832,-0.5948,-0.5964,-0.6,-0.6111,-0.6177,-0.6454,-0.6435,-0.6473,-0.6501,-0.6774,-0.6775,-0.6777,-0.6678,-0.6672,-0.6666,0,0,0,0,0,0,-0.5151,-0.5359,-0.5407,-0.5525,-0.5643,-0.5825,-0.5873,-0.5937,-0.6055,-0.606,-0.62,-0.6239,-0.6351,-0.6439,-0.6413,-0.6593,-0.662,-0.6629,-0.6532,-0.6527,-0.6522,-0.65,-0.65,0,0,0,0,0,-0.5137,-0.5237,-0.5414,-0.55,-0.5557,-0.5704,-0.5772,-0.585,-0.598,-0.6031,-0.6152,-0.6275,-0.6391,-0.6464,-0.6579,-0.6688,-0.673,-0.6726,-0.6721,-0.6717,-0.6723,-0.6789,-0.6789,-0.6782,-0.6782,-0.6782,0,0,-0.511,-0.5235,-0.5291,-0.5478,-0.558,-0.5681,-0.5745,-0.585,-0.5927,-0.6048,-0.6173,-0.6265,-0.6413,-0.653,-0.6588,-0.6606,-0.6734,-0.6719,-0.6713,-0.6723,-0.679,-0.6791,-0.6791,-0.6783,-0.6783,-0.6783,0,0,-0.5112,-0.5217,-0.5301,-0.54,-0.5553,-0.565,-0.5669,-0.5841,-0.5907,-0.6034,-0.6126,-0.622,-0.6415,-0.6517,-0.6594,-0.6633,-0.6698,-0.6666,-0.6642,-0.6703,-0.6704,-0.6705,-0.672,-0.6724,-0.6672,-0.6672,-0.6672,0,-0.506,-0.5216,-0.5336,-0.5435,-0.5515,-0.5627,-0.5714,-0.5805,-0.5987,-0.604,-0.6058,-0.6305,-0.6412,-0.6555,-0.6564,-0.6623,-0.665,-0.6647,-0.6694,-0.6696,-0.6699,-0.6715,-0.672,-0.6667,-0.6668,-0.6668,-0.6669,0,-0.5144,-0.525,-0.5299,-0.5471,-0.5557,-0.5649,-0.5784,-0.5856,-0.5927,-0.6022,-0.6151,-0.6283,-0.6427,-0.6467,-0.6537,-0.662,-0.6627,-0.6667,-0.6698,-0.6693,-0.671,-0.6717,-0.666,-0.6662,-0.6663,-0.6665,0,0,-0.5078,-0.5314,-0.533,-0.541,-0.5585,-0.567,-0.5768,-0.5908,-0.5967,-0.6089,-0.6175,-0.6336,-0.6375,-0.6462,-0.6545,-0.6598,-0.6622,-0.6633,-0.6639,-0.6627,-0.6722,-0.6691,-0.6696,-0.6666,-0.6667,-0.6669,-0.671,0,-0.5106,-0.5285,-0.5395,-0.553,-0.563,-0.5737,-0.5822,-0.5939,-0.603,-0.6129,-0.6231,-0.6344,-0.6385,-0.6438,-0.6496,-0.6606,-0.6643,-0.6605,-0.6749,-0.6752,-0.6709,-0.6706,-0.6674,-0.6707,-0.6718,-0.6719,-0.672,0,-0.5163,-0.528,-0.5424,-0.5588,-0.5634,-0.5708,-0.5845,-0.5938,-0.6073,-0.6136,-0.6232,-0.6315,-0.6424,-0.6443,-0.6595,-0.6566,-0.6631,-0.6694,-0.6698,-0.6717,-0.6736,-0.6726,-0.672,-0.6725,-0.6731,-0.6731,-0.673,0,-0.5101,-0.5296,-0.5407,-0.5472,-0.5665,-0.5715,-0.5798,-0.5933,-0.601,-0.613,-0.6181,-0.6312,-0.6384,-0.6484,-0.6601,-0.6604,-0.674,-0.677,-0.6797,-0.6794,-0.6822,-0.6819,-0.6828,-0.6861,-0.6861,-0.6861,-0.686,0,-0.5122,-0.5206,-0.5382,-0.5451,-0.5548,-0.5674,-0.5768,-0.586,-0.5979,-0.6068,-0.6168,-0.625,-0.6398,-0.6499,-0.659,-0.6702,-0.6734,-0.6788,-0.6812,-0.678,-0.6773,-0.6826,-0.6827,-0.6862,-0.6862,-0.6861,-0.6861,0,-0.5071,-0.5192,-0.5321,-0.5493,-0.5538,-0.5602,-0.5751,-0.5822,-0.5917,-0.6029,-0.6062,-0.6213,-0.6336,-0.6462,-0.6629,-0.669,-0.68,-0.6832,-0.6754,-0.6767,-0.6787,-0.6784,-0.6832,-0.6845,-0.6866,-0.6866,-0.6866,0,-0.5076,-0.5144,-0.5322,-0.5388,-0.5469,-0.5574,-0.5653,-0.5779,-0.5857,-0.6015,-0.6067,-0.6198,-0.6309,-0.65,-0.6626,-0.6754,-0.679,-0.6798,-0.681,-0.6776,-0.6792,-0.6787,-0.6795,-0.6794,-0.6793,-0.6792,-0.6791,0,-0.5074,-0.513,-0.5239,-0.5368,-0.5459,-0.5567,-0.5679,-0.5728,-0.5877,-0.5959,-0.6086,-0.6171,-0.6341,-0.6469,-0.6612,-0.6699,-0.6771,-0.6786,-0.68,-0.6769,-0.6721,-0.6748,-0.6742,-0.6785,-0.6786,-0.6786,-0.6787,-0.6787,-0.5053,-0.5117,-0.5253,-0.537,-0.5468,-0.557,-0.5645,-0.5749,-0.5857,-0.6004,-0.6072,-0.6199,-0.6333,-0.6531,-0.6617,-0.6719,-0.6739,-0.6757,-0.6763,-0.6766,-0.6758,-0.6703,-0.6745,-0.6745,-0.6746,-0.6746,-0.6746,0,-0.5056,-0.5148,-0.5255,-0.5408,-0.55,-0.5557,-0.5684,-0.5759,-0.5868,-0.5986,-0.6093,-0.6238,-0.6363,-0.6497,-0.663,-0.6686,-0.6722,-0.6717,-0.6715,-0.6734,-0.6733,-0.6708,-0.6686,-0.6686,-0.6686,-0.6686,-0.6686,-0.6686,-0.5069,-0.5181,-0.5253,-0.5415,-0.5507,-0.5631,-0.5699,-0.5794,-0.5889,-0.6046,-0.615,-0.6236,-0.6361,-0.6504,-0.6621,-0.6658,-0.6702,-0.6688,-0.6733,-0.673,-0.6734,-0.6739,-0.6717,-0.6696,-0.6696,-0.6728,-0.6728,-0.6728]}]]